Location: Twentynine Palms Airport
(34.1316°N, 115.9458°W)
Time: 02:07:06
(UTC-07:00)

Amateur Radio Satellites - All Passes

Search period start: 19 August 2017 01:37
Search period end: 20 August 2017 01:37
Location: Twentynine Palms Airport, 34.1316°N, 115.9458°W

Satellite Date Start Highest point End Downlink Frequencies (MHz)
Time Altitude Azimuth
UKube-1 19 Aug 01:38:43 01:43:02 83° 74° (ENE) 01:47:23 .
QB50P2 19 Aug 01:40:47 01:43:16 15° 292° (WNW) 01:45:45 145.880/145.840
EO-79 19 Aug 01:42:11 01:44:48 16° 292° (WNW) 01:47:24 145.935-145.965
50 SAT 19 Aug 01:42:25 01:45:24 28° 262° (W) 01:48:23 437.505
Oscar 19 19 Aug 01:46:21 01:51:15 41° 99° (E) 01:56:07 437.125/150
VELOX 1 19 Aug 01:49:30 01:51:36 13° 267° (W) 01:53:43 145.980
ITUPSAT 1 19 Aug 01:52:41 01:53:55 11° 64° (ENE) 01:55:08 437.325
DX 1 19 Aug 01:56:02 02:00:06 38° 261° (W) 02:04:11 434.975-435.025
BUGSAT 1 19 Aug 02:23:17 02:26:32 24° 289° (WNW) 02:29:47 437.445
NO-84 19 Aug 02:30:14 02:32:25 19° 319° (NW) 02:34:34 435.350 FM
Gurwin Techsat 1B 19 Aug 02:41:46 02:47:07 86° 285° (WNW) 02:52:25 435.225
YUBILEINY 19 Aug 02:50:07 02:58:15 42° 77° (ENE) 03:06:17 435.215
BEESAT 19 Aug 02:53:37 02:58:14 53° 74° (ENE) 03:02:52 436.000
MOZHAYETS 4 19 Aug 02:56:44 03:01:03 45° 74° (ENE) 03:05:23
ITAMSAT 1 19 Aug 03:03:16 03:05:36 13° 93° (E) 03:07:55 435.822/435.867
CUBESAT XI-V 19 Aug 03:13:29 03:15:27 13° 65° (ENE) 03:17:25 437.345
ITUPSAT 1 19 Aug 03:26:24 03:31:06 67° 258° (WSW) 03:35:51 437.325
Oscar 19 19 Aug 03:26:28 03:30:13 20° 293° (WNW) 03:33:58 437.125/150
AO-7 19 Aug 03:54:09 04:02:15 53° 103° (ESE) 04:10:16 .
BEESAT 3 19 Aug 04:20:24 04:22:00 12° 108° (ESE) 04:23:37 437.485
BEESAT 19 Aug 04:34:17 04:36:15 12° 267° (W) 04:38:14 436.000
MOZHAYETS 4 19 Aug 04:36:06 04:38:23 14° 267° (W) 04:40:40
ITAMSAT 1 19 Aug 04:40:17 04:45:22 60° 286° (WNW) 04:50:26 435.822/435.867
YUBILEINY 19 Aug 04:47:08 04:54:47 36° 274° (W) 05:02:27 435.215
CUBESAT XI-V 19 Aug 04:47:45 04:52:17 55° 260° (W) 04:56:52 437.345
KKS-1 19 Aug 04:59:27 05:03:56 90° 33° (NNE) 05:08:25 437.445
DOVE 4 19 Aug 05:06:00 05:08:29 15° 92° (E) 05:10:54 437.250
STARS 19 Aug 05:43:49 05:48:13 71° 258° (WSW) 05:52:37 437.465
LilacSat-2 19 Aug 05:47:33 05:49:25 13° 93° (E) 05:51:15 437.200
AO-7 19 Aug 05:47:35 05:54:33 31° 299° (WNW) 06:01:29 .
XW-2D 19 Aug 05:53:55 05:56:12 15° 94° (E) 05:58:30 145.860 - 145.880
BEESAT 3 19 Aug 05:55:19 05:59:08 43° 302° (WNW) 06:03:00 437.485
BEESAT 2 19 Aug 06:04:14 06:08:09 66° 116° (ESE) 06:12:09 435.950
XW-2B 19 Aug 06:04:23 06:07:15 20° 95° (E) 06:10:06 145.730 - 145.750
NUDT-PHONESAT 19 Aug 06:08:11 06:10:29 16° 94° (E) 06:12:47 437.300
AO-85 19 Aug 06:09:56 06:13:47 48° 301° (WNW) 06:17:35 145.980
STRAND 1 19 Aug 06:11:49 06:14:34 15° 65° (ENE) 06:17:19 437.568
XW-2C 19 Aug 06:22:46 06:26:19 35° 98° (E) 06:29:52 145.795 - 145.815
CUTE-I 19 Aug 06:34:55 06:39:56 41° 99° (E) 06:44:55 437.470
XW-2F 19 Aug 06:36:26 06:40:11 51° 100° (E) 06:43:54 145.980 - 146.000
DOVE 4 19 Aug 06:42:10 06:46:22 38° 288° (WNW) 06:50:21 437.250
KAITUO 1B 19 Aug 07:04:56 07:08:45 80° 281° (WNW) 07:12:32 145.475/437.950
SEEDS 19 Aug 07:06:31 07:07:45 11° 92° (E) 07:08:59 437.485
LilacSat-2 19 Aug 07:20:14 07:23:44 33° 286° (WNW) 07:27:14 437.200
XW-2D 19 Aug 07:27:04 07:30:23 28° 287° (WNW) 07:33:41 145.860 - 145.880
HO-68 19 Aug 07:28:01 07:34:45 43° 100° (E) 07:41:26 435.675
SO-50 19 Aug 07:35:23 07:37:52 14° 48° (NE) 07:40:21 436.795
UWE-3 19 Aug 07:37:46 07:39:33 12° 93° (E) 07:41:20 435.000/436.395/437.385
XW-2B 19 Aug 07:38:20 07:41:19 22° 289° (WNW) 07:44:17 145.730 - 145.750
CUBEBUG 2 19 Aug 07:39:30 07:42:56 24° 96° (E) 07:46:24 437.445
XW-2A 19 Aug 07:39:52 07:42:30 21° 96° (E) 07:45:08 145.665 - 145.685
NUDT-PHONESAT 19 Aug 07:41:11 07:44:20 26° 287° (WNW) 07:47:29 437.300
BEESAT 2 19 Aug 07:45:26 07:46:18 11° 313° (NW) 07:47:12 435.950
FO-29 19 Aug 07:45:49 07:50:00 16° 62° (ENE) 07:54:00 435.910
CUTE 1.7 + AOD 2 19 Aug 07:47:52 07:52:09 65° 101° (E) 07:56:24 437.475
PCSat 19 Aug 07:47:55 07:52:27 26° 55° (NE) 07:56:56 145.827
STRAND 1 19 Aug 07:48:12 07:53:13 57° 259° (W) 07:58:15 437.568
AAUSAT CUBESAT 2 19 Aug 07:56:12 07:59:14 19° 95° (E) 08:02:15 437.432
XW-2C 19 Aug 07:58:25 08:00:08 13° 292° (WNW) 08:01:52 145.795 - 145.815
CUTE-I 19 Aug 08:15:46 08:19:39 21° 293° (WNW) 08:23:30 437.470
ZACube-1 19 Aug 08:20:30 08:23:49 22° 96° (E) 08:27:11 437.345
SEEDS 19 Aug 08:39:32 08:43:38 47° 286° (WNW) 08:47:43 437.485
AO-73 19 Aug 08:42:21 08:46:17 35° 98° (E) 08:50:17 145.935
NO-84 19 Aug 09:05:08 09:07:57 29° 44° (NE) 09:10:58 435.350 FM
Tancredo 1 19 Aug 09:08:43 09:11:34 56° 135° (SE) 09:14:26 437.200
UWE-3 19 Aug 09:12:06 09:16:08 44° 286° (WNW) 09:20:15 435.000/436.395/437.385
XW-2A 19 Aug 09:12:55 09:15:02 16° 289° (WNW) 09:17:08 145.665 - 145.685
SO-50 19 Aug 09:14:10 09:18:41 60° 244° (WSW) 09:23:14 436.795
HO-68 19 Aug 09:16:05 09:22:13 32° 295° (WNW) 09:28:20 435.675
CUBEBUG 2 19 Aug 09:16:07 09:19:24 22° 289° (WNW) 09:22:44 437.445
RS-15 19 Aug 09:17:59 09:24:13 16° 97° (E) 09:30:28 29.354- 29.394
DELFI C3 19 Aug 09:19:47 09:21:44 13° 93° (E) 09:23:40 145.870
FO-29 19 Aug 09:26:26 09:34:14 89° 256° (WSW) 09:41:26 435.910
Oscar 11 19 Aug 09:29:27 09:33:50 86° 280° (W) 09:38:11 .
Max Valier Satellite 19 Aug 09:30:00 09:31:35 12° 94° (E) 09:33:08 145.860
PCSat 19 Aug 09:30:56 09:35:52 37° 251° (WSW) 09:40:46 145.827
AAUSAT CUBESAT 2 19 Aug 09:31:07 09:34:38 27° 289° (WNW) 09:38:07 437.432
O/OREOS (USA 219) 19 Aug 09:38:01 09:42:23 60° 107° (ESE) 09:46:48 437.305
UNISAT 6 19 Aug 09:39:30 09:43:45 52° 75° (ENE) 09:47:57 437.425
ISS 19 Aug 09:46:10 09:49:05 31° 131° (SE) 09:52:02 437.550
M-CUBED/EXP-1 PRIME 19 Aug 09:53:29 09:54:16 10° 59° (ENE) 09:55:04 437.505
ZACube-1 19 Aug 09:56:27 10:00:01 26° 288° (WNW) 10:03:37 437.345
nSIGHT-1 19 Aug 09:56:41 09:59:48 44° 133° (SE) 10:02:56 .
JUGNU 19 Aug 10:10:54 10:12:31 11° 164° (SSE) 10:14:09 437.505
TIGRISAT 19 Aug 10:15:03 10:19:23 63° 259° (W) 10:23:40 435.000
PRISM 19 Aug 10:18:08 10:22:16 75° 258° (WSW) 10:26:27 437.425
AO-73 19 Aug 10:19:30 10:22:13 17° 291° (WNW) 10:24:57 145.935
EO-88 19 Aug 10:26:17 10:29:54 56° 100° (E) 10:33:30 145.990 - 145.960
POLYITAN 1 19 Aug 10:41:01 10:41:38 10° 66° (ENE) 10:42:16 437.675
NO-84 19 Aug 10:42:52 10:45:14 18° 234° (SW) 10:47:43 435.350 FM
Tancredo 1 19 Aug 10:45:43 10:47:01 12° 330° (NNW) 10:48:20 437.200
DELFI C3 19 Aug 10:52:57 10:56:34 34° 287° (WNW) 11:00:09 145.870
QB50P2 19 Aug 10:53:43 10:56:28 17° 69° (ENE) 10:59:13 145.880/145.840
EO-79 19 Aug 10:55:15 10:57:51 16° 68° (ENE) 11:00:26 145.935-145.965
Max Valier Satellite 19 Aug 11:02:09 11:05:28 32° 286° (WNW) 11:08:46 145.860
FO-29 19 Aug 11:16:04 11:19:42 14° 269° (W) 11:23:14 435.910
UNISAT 6 19 Aug 11:19:48 11:20:41 11° 268° (W) 11:21:33 437.425
O/OREOS (USA 219) 19 Aug 11:20:53 11:22:11 11° 303° (WNW) 11:23:29 437.305
RS-15 19 Aug 11:22:33 11:34:40 79° 115° (ESE) 11:47:02 29.354- 29.394
ISS 19 Aug 11:22:59 11:25:35 21° 326° (NW) 11:28:12 437.550
M-CUBED/EXP-1 PRIME 19 Aug 11:23:34 11:27:55 74° 253° (WSW) 11:32:32 437.505
DUCHIFAT 1 19 Aug 11:26:18 11:29:54 29° 72° (ENE) 11:33:30 145.980
nSIGHT-1 19 Aug 11:34:06 11:36:20 17° 328° (NNW) 11:38:34 .
AIST 2D 19 Aug 11:37:19 11:40:40 48° 261° (W) 11:44:04 435.315
ESTCUBE 1 19 Aug 11:49:53 11:54:14 44° 99° (E) 11:58:33 437.505/2401.250
JUGNU 19 Aug 11:56:52 12:00:49 18° 174° (S) 12:04:44 437.505
LO-87 19 Aug 12:01:59 12:05:29 64° 283° (WNW) 12:08:58 145.935 - 145.965
VELOX 1 19 Aug 12:06:50 12:08:07 11° 92° (E) 12:09:23 145.980
NANOSAT C BR1 19 Aug 12:09:40 12:13:51 68° 259° (W) 12:18:01 145.865
POLYITAN 1 19 Aug 12:12:47 12:16:54 55° 260° (W) 12:21:01 437.675
Gurwin Techsat 1B 19 Aug 12:23:35 12:25:07 11° 62° (ENE) 12:26:40 435.225
SPROUT 19 Aug 12:25:42 12:29:12 25° 96° (E) 12:32:40 437.525
QB50P2 19 Aug 12:28:13 12:31:59 31° 262° (W) 12:35:45 145.880/145.840
EO-79 19 Aug 12:29:28 12:33:17 34° 262° (W) 12:37:08 145.935-145.965
Oscar 19 19 Aug 12:59:29 13:04:16 41° 71° (ENE) 13:09:05 437.125/150
DUCHIFAT 1 19 Aug 13:02:40 13:05:32 18° 265° (W) 13:08:25 145.980
50 SAT 19 Aug 13:07:49 13:10:12 18° 96° (E) 13:12:35 437.505
BUGSAT 1 19 Aug 13:08:08 13:12:12 60° 259° (W) 13:16:14 437.445
ESTCUBE 1 19 Aug 13:28:05 13:30:36 15° 293° (WNW) 13:33:07 437.505/2401.250
UKube-1 19 Aug 13:30:24 13:33:21 18° 95° (E) 13:36:16 .
RS-15 19 Aug 13:37:59 13:48:29 32° 318° (NW) 13:59:06 29.354- 29.394
VELOX 1 19 Aug 13:40:31 13:44:49 51° 286° (WNW) 13:49:03 145.980
JUGNU 19 Aug 13:45:05 13:49:09 19° 184° (S) 13:53:11 437.505
DX 1 19 Aug 13:47:32 13:51:44 46° 100° (E) 13:55:53 434.975-435.025
SRMSAT 19 Aug 13:53:46 13:57:03 15° 169° (S) 14:00:20 437.500
Gurwin Techsat 1B 19 Aug 13:59:00 14:04:19 79° 257° (WSW) 14:09:40 435.225
SPROUT 19 Aug 14:01:41 14:04:56 22° 290° (WNW) 14:08:10 437.525
BEESAT 3 19 Aug 14:15:33 14:19:04 30° 55° (NE) 14:22:32 437.485
ITAMSAT 1 19 Aug 14:17:40 14:20:35 15° 64° (ENE) 14:23:30 435.822/435.867
BEESAT 2 19 Aug 14:26:39 14:28:44 14° 49° (NE) 14:30:48 435.950
Oscar 19 19 Aug 14:40:05 14:43:42 19° 266° (W) 14:47:19 437.125/150
50 SAT 19 Aug 14:40:25 14:42:44 17° 289° (WNW) 14:45:00 437.505
AO-85 19 Aug 14:43:34 14:47:45 43° 58° (ENE) 14:52:13 145.980
AO-7 19 Aug 14:48:46 14:56:47 53° 67° (ENE) 15:04:49 .
MOZHAYETS 4 19 Aug 14:56:47 14:59:15 14° 93° (E) 15:01:43
BEESAT 19 Aug 14:58:22 15:01:38 18° 95° (E) 15:04:52 436.000
UKube-1 19 Aug 15:05:34 15:09:22 31° 289° (WNW) 15:13:09 .
DX 1 19 Aug 15:25:28 15:27:27 13° 294° (WNW) 15:29:27 434.975-435.025
ITUPSAT 1 19 Aug 15:30:36 15:35:07 40° 99° (E) 15:39:36 437.325
JUGNU 19 Aug 15:34:53 15:37:26 13° 194° (SSW) 15:39:58 437.505
Tancredo 1 19 Aug 15:35:35 15:36:45 12° 30° (NNE) 15:37:56 437.200
SRMSAT 19 Aug 15:41:22 15:45:31 20° 179° (S) 15:49:41 437.500
YUBILEINY 19 Aug 15:45:49 15:54:17 55° 90° (E) 16:02:43 435.215
BEESAT 3 19 Aug 15:53:43 15:56:22 17° 250° (WSW) 15:58:59 437.485
ITAMSAT 1 19 Aug 15:54:25 15:59:31 57° 259° (W) 16:04:39 435.822/435.867
RS-15 19 Aug 16:02:03 16:06:58 13° 352° (N) 16:11:50 29.354- 29.394
BEESAT 2 19 Aug 16:02:50 16:06:44 47° 245° (WSW) 16:10:33 435.950
DOVE 4 19 Aug 16:07:36 16:10:10 14° 65° (ENE) 16:12:42 437.250
ISS 19 Aug 16:18:20 16:19:12 11° 26° (NNE) 16:20:03 437.550
AO-85 19 Aug 16:25:02 16:27:52 16° 250° (WSW) 16:30:48 145.980
nSIGHT-1 19 Aug 16:28:04 16:29:42 13° 29° (NNE) 16:31:18 .
MOZHAYETS 4 19 Aug 16:32:11 16:36:34 45° 287° (WNW) 16:40:58
BEESAT 19 Aug 16:35:05 16:39:28 37° 288° (WNW) 16:43:49 436.000
AO-7 19 Aug 16:42:39 16:49:43 30° 262° (W) 16:56:49 .
CUBESAT XI-V 19 Aug 16:47:51 16:52:25 48° 99° (E) 16:56:56 437.345
KKS-1 19 Aug 16:54:46 16:58:13 22° 96° (E) 17:01:40 437.445
XW-2C 19 Aug 17:03:06 17:03:45 10° 67° (ENE) 17:04:25 145.795 - 145.815
Tancredo 1 19 Aug 17:09:22 17:12:13 59° 226° (SW) 17:15:03 437.200
ITUPSAT 1 19 Aug 17:09:26 17:12:34 18° 293° (WNW) 17:15:43 437.325
XW-2F 19 Aug 17:14:59 17:17:02 14° 69° (ENE) 17:19:06 145.980 - 146.000
SRMSAT 19 Aug 17:30:21 17:34:00 17° 189° (S) 17:37:39 437.500
STARS 19 Aug 17:37:14 17:40:54 26° 97° (E) 17:44:34 437.465
KAITUO 1B 19 Aug 17:41:32 17:44:34 24° 72° (ENE) 17:47:38 145.475/437.950
DOVE 4 19 Aug 17:41:58 17:47:14 66° 259° (W) 17:52:27 437.250
YUBILEINY 19 Aug 17:44:09 17:51:23 28° 287° (WNW) 17:58:38 435.215
ISS 19 Aug 17:52:52 17:56:08 80° 43° (NE) 17:59:23 437.550
CUTE-I 19 Aug 17:52:54 17:58:01 48° 72° (ENE) 18:03:09 437.470
HO-68 19 Aug 17:54:03 17:59:14 22° 62° (ENE) 18:04:24 435.675
LilacSat-2 19 Aug 17:57:44 18:01:26 63° 76° (ENE) 18:05:12 437.200
nSIGHT-1 19 Aug 18:03:10 18:06:23 70° 226° (SW) 18:09:34 .
XW-2D 19 Aug 18:03:44 18:07:26 74° 79° (ENE) 18:11:13 145.860 - 145.880
XW-2B 19 Aug 18:14:43 18:18:27 80° 259° (W) 18:22:14 145.730 - 145.750
NUDT-PHONESAT 19 Aug 18:15:46 18:19:24 73° 76° (ENE) 18:23:04 437.300
RS-15 19 Aug 18:18:33 18:26:50 20° 30° (NNE) 18:34:50 29.354- 29.394
CUBESAT XI-V 19 Aug 18:26:43 18:29:19 15° 294° (WNW) 18:31:54 437.345
KKS-1 19 Aug 18:31:00 18:34:41 26° 290° (WNW) 18:38:22 437.445
XW-2C 19 Aug 18:33:58 18:37:30 41° 261° (W) 18:41:04 145.795 - 145.815
CUBEBUG 2 19 Aug 18:35:27 18:37:29 13° 68° (ENE) 18:39:28 437.445
CUTE 1.7 + AOD 2 19 Aug 18:37:00 18:40:34 27° 72° (ENE) 18:44:09 437.475
XW-2F 19 Aug 18:47:37 18:50:52 29° 263° (W) 18:54:09 145.980 - 146.000
STARS 19 Aug 19:13:44 19:17:04 22° 291° (WNW) 19:20:24 437.465
ZACube-1 19 Aug 19:15:22 19:16:03 10° 66° (ENE) 19:16:44 437.345
KAITUO 1B 19 Aug 19:16:12 19:18:31 16° 266° (W) 19:20:52 145.475/437.950
SEEDS 19 Aug 19:26:48 19:30:57 68° 76° (ENE) 19:35:09 437.485
CUTE-I 19 Aug 19:34:44 19:38:15 18° 266° (W) 19:41:46 437.470
AO-73 19 Aug 19:35:18 19:37:56 17° 69° (ENE) 19:40:34 145.935
XW-2A 19 Aug 19:39:00 19:42:19 86° 77° (ENE) 19:45:39 145.665 - 145.685
HO-68 19 Aug 19:39:16 19:46:20 63° 257° (WSW) 19:53:26 435.675
O/OREOS (USA 219) 19 Aug 19:51:33 19:56:03 62° 69° (ENE) 20:00:34 437.305
STRAND 1 19 Aug 20:02:18 20:07:23 67° 102° (ESE) 20:12:26 437.568
UWE-3 19 Aug 20:04:53 20:09:08 89° 77° (ENE) 20:13:19 435.000/436.395/437.385
CUBEBUG 2 19 Aug 20:09:35 20:13:43 43° 261° (W) 20:17:45 437.445
CUTE 1.7 + AOD 2 19 Aug 20:13:17 20:16:21 19° 265° (W) 20:19:26 437.475
AAUSAT CUBESAT 2 19 Aug 20:16:20 20:20:28 69° 260° (W) 20:24:37 437.432
Oscar 11 19 Aug 20:20:18 20:24:21 43° 74° (ENE) 20:28:27 .
RS-15 19 Aug 20:30:21 20:42:19 66° 57° (ENE) 20:53:33 29.354- 29.394
ZACube-1 19 Aug 20:47:47 20:51:51 52° 260° (W) 20:55:54 437.345
EO-88 19 Aug 21:01:45 21:03:40 14° 69° (ENE) 21:05:35 145.990 - 145.960
AO-73 19 Aug 21:10:12 21:13:54 31° 263° (W) 21:17:35 145.935
DELFI C3 19 Aug 21:33:40 21:37:38 73° 77° (ENE) 21:41:38 145.870
UNISAT 6 19 Aug 21:36:02 21:38:22 14° 94° (E) 21:40:42 437.425
Max Valier Satellite 19 Aug 21:36:39 21:40:12 56° 76° (ENE) 21:43:47 145.860
STRAND 1 19 Aug 21:43:52 21:45:56 12° 296° (WNW) 21:48:00 437.568
Oscar 11 19 Aug 21:58:45 22:00:39 13° 267° (W) 22:02:34 .
PRISM 19 Aug 22:03:57 22:06:55 19° 96° (E) 22:09:50 437.425
TIGRISAT 19 Aug 22:10:07 22:14:01 33° 98° (E) 22:17:59 435.000
PCSat 19 Aug 22:25:08 22:30:19 49° 111° (ESE) 22:35:33 145.827
FO-29 19 Aug 22:26:28 22:31:57 69° 286° (WNW) 22:37:06 435.910
EO-88 19 Aug 22:33:53 22:37:02 28° 263° (W) 22:40:12 145.990 - 145.960
LO-87 19 Aug 22:34:29 22:37:28 25° 73° (ENE) 22:40:28 145.935 - 145.965
RS-15 19 Aug 22:44:06 22:53:45 31° 257° (WSW) 23:03:03 29.354- 29.394
ESTCUBE 1 19 Aug 22:45:58 22:49:41 26° 70° (ENE) 22:53:25 437.505/2401.250
AIST 2D 19 Aug 23:06:53 23:08:57 15° 94° (E) 23:11:00 435.315
M-CUBED/EXP-1 PRIME 19 Aug 23:09:18 23:09:55 10° 95° (E) 23:10:33 437.505
UNISAT 6 19 Aug 23:11:09 23:15:10 39° 287° (WNW) 23:19:15 437.425
SPROUT 19 Aug 23:16:56 23:18:45 13° 67° (ENE) 23:20:34 437.525
SO-50 19 Aug 23:24:31 23:29:02 77° 300° (WNW) 23:33:33 436.795
PRISM 19 Aug 23:38:40 23:42:08 26° 289° (WNW) 23:45:34 437.425
TIGRISAT 19 Aug 23:47:36 23:50:27 17° 291° (WNW) 23:53:18 435.000
NANOSAT C BR1 19 Aug 23:58:02 00:01:26 24° 96° (E) 00:04:50 145.865
POLYITAN 1 20 Aug 00:01:21 00:05:03 29° 98° (E) 00:08:44 437.675
LO-87 20 Aug 00:08:48 00:10:52 15° 266° (W) 00:12:56 145.935 - 145.965
PCSat 20 Aug 00:09:57 00:13:57 21° 307° (NW) 00:17:59 145.827
QB50P2 20 Aug 00:16:05 00:20:11 51° 100° (E) 00:24:18 145.880/145.840
EO-79 20 Aug 00:17:14 00:21:18 47° 100° (E) 00:25:21 145.935-145.965
NO-84 20 Aug 00:20:15 00:21:55 14° 125° (SE) 00:23:31 435.350 FM
ESTCUBE 1 20 Aug 00:22:47 00:26:23 24° 264° (W) 00:30:01 437.505/2401.250
VELOX 1 20 Aug 00:33:21 00:37:48 85° 77° (ENE) 00:42:17 145.980
AIST 2D 20 Aug 00:39:11 00:42:06 24° 287° (WNW) 00:45:01 435.315
DX 1 20 Aug 00:39:36 00:43:13 25° 70° (ENE) 00:46:49 434.975-435.025
M-CUBED/EXP-1 PRIME 20 Aug 00:40:28 00:44:42 52° 291° (WNW) 00:48:35 437.505
DUCHIFAT 1 20 Aug 00:48:33 00:52:45 89° 285° (WNW) 00:56:55 145.980
SPROUT 20 Aug 00:50:07 00:54:12 46° 261° (W) 00:58:18 437.525
BUGSAT 1 20 Aug 00:53:53 00:57:07 23° 97° (E) 01:00:21 437.445
50 SAT 20 Aug 01:06:20 01:09:45 79° 76° (ENE) 01:13:10 437.505
Oscar 19 20 Aug 01:15:31 01:19:15 20° 95° (E) 01:22:58 437.125/150
